| time (UTC) | temp F | wind direction | speed MPH | gust MPH | rain 1hr in | rain 24hr in | rain mn in | humidity % | barometer mb |
| 20260502234609 | 76 | 162 | 2.0 | 2.0 | 0.00 | 0.00 | 0.00 | 22 | 920.5 |
| 20260502233108 | 76 | 39 | 5.0 | 7.0 | 0.00 | 0.00 | 0.00 | 22 | 920.5 |
| 20260502231611 | 76 | 7 | 3.0 | 4.0 | 0.00 | 0.00 | 0.00 | 22 | 920.5 |
| 20260502230115 | 76 | 202 | 0.0 | 2.0 | 0.00 | 0.00 | 0.00 | 22 | 920.5 |
| 20260502224609 | 75 | 62 | 1.0 | 3.0 | 0.00 | 0.00 | 0.00 | 22 | 920.5 |
| 20260502223110 | 74 | 57 | 4.0 | 5.0 | 0.00 | 0.00 | 0.00 | 22 | 920.4 |
| 20260502220115 | 76 | 109 | 3.0 | 4.0 | 0.00 | 0.00 | 0.00 | 22 | 920.4 |
| 20260502214612 | 76 | 20 | 4.0 | 6.0 | 0.00 | 0.00 | 0.00 | 22 | 920.5 |
| 20260502213108 | 75 | 31 | 5.0 | 6.0 | 0.00 | 0.00 | 0.00 | 22 | 920.4 |
| 20260502211616 | 75 | 42 | 4.0 | 7.0 | 0.00 | 0.00 | 0.00 | 22 | 920.4 |
| 20260502210114 | 75 | 144 | 3.0 | 4.0 | 0.00 | 0.00 | 0.00 | 22 | 920.4 |
| 20260502204612 | 75 | 223 | 2.0 | 4.0 | 0.00 | 0.00 | 0.00 | 22 | 920.5 |
| 20260502203108 | 74 | 102 | 1.0 | 3.0 | 0.00 | 0.00 | 0.00 | 22 | 920.3 |
| 20260502201618 | 74 | 45 | 4.0 | 5.0 | 0.00 | 0.00 | 0.00 | 22 | 920.4 |
| 20260502194612 | 74 | 121 | 0.0 | 1.0 | 0.00 | 0.00 | 0.00 | 22 | 920.4 |
| 20260502193108 | 71 | 193 | 5.0 | 6.0 | 0.00 | 0.00 | 0.00 | 22 | 920.1 |
| 20260502191613 | 68 | 198 | 6.0 | 6.0 | 0.00 | 0.00 | 0.00 | 22 | 919.9 |
| 20260502190113 | 67 | 163 | 4.0 | 4.0 | 0.00 | 0.00 | 0.00 | 22 | 919.8 |
| 20260502184608 | 65 | 169 | 2.0 | 2.0 | 0.00 | 0.00 | 0.00 | 22 | 919.7 |
| 20260502183108 | 63 | 125 | 3.0 | 5.0 | 0.00 | 0.00 | 0.00 | 22 | 919.5 |
| 20260502181616 | 63 | 74 | 6.0 | 7.0 | 0.00 | 0.00 | 0.00 | 22 | 919.5 |
| 20260502180108 | 63 | 170 | 2.0 | 3.0 | 0.00 | 0.00 | 0.00 | 22 | 919.5 |
| 20260502170109 | 59 | 281 | 1.0 | 2.0 | 0.00 | 0.00 | 0.00 | 22 | 919.2 |
| 20260502161609 | 54 | 178 | 3.0 | 4.0 | 0.00 | 0.00 | 0.00 | 22 | 918.8 |
| 20260502160115 | 53 | 216 | 3.0 | 4.0 | 0.00 | 0.00 | 0.00 | 21 | 918.7 |
| 20260502151614 | 51 | 314 | 3.0 | 6.0 | 0.00 | 0.00 | 0.00 | 21 | 918.5 |
| 20260502150111 | 50 | 329 | 1.0 | 2.0 | 0.00 | 0.00 | 0.00 | 21 | 918.5 |
| 20260502140109 | 46 | 305 | 4.0 | 7.0 | 0.00 | 0.00 | 0.00 | 20 | 918.1 |
| 20260502130113 | 46 | 309 | 7.0 | 8.0 | 0.00 | 0.00 | 0.00 | 20 | 918.1 |
| 20260502123108 | 46 | 215 | 3.0 | 6.0 | 0.00 | 0.00 | 0.00 | 20 | 918.1 |
| 20260502120114 | 46 | 326 | 4.0 | 6.0 | 0.00 | 0.00 | 0.00 | 20 | 918.1 |
| 20260502113111 | 45 | 294 | 12.0 | 18.0 | 0.00 | 0.00 | 0.00 | 20 | 917.9 |
| 20260502111614 | 45 | 294 | 11.0 | 15.0 | 0.00 | 0.00 | 0.00 | 20 | 918.1 |
| 20260502110108 | 45 | 304 | 10.0 | 15.0 | 0.00 | 0.00 | 0.00 | 20 | 917.9 |
| 20260502104609 | 48 | 299 | 9.0 | 15.0 | 0.00 | 0.00 | 0.00 | 20 | 918.1 |
| 20260502103109 | 47 | 318 | 7.0 | 8.0 | 0.00 | 0.00 | 0.00 | 20 | 918.2 |
| 20260502101608 | 47 | 310 | 4.0 | 7.0 | 0.00 | 0.00 | 0.00 | 20 | 918.2 |
| 20260502100109 | 47 | 312 | 5.0 | 7.0 | 0.00 | 0.00 | 0.00 | 20 | 918.2 |
| 20260502090111 | 48 | 302 | 2.0 | 3.0 | 0.00 | 0.00 | 0.00 | 20 | 918.3 |
| 20260502080110 | 50 | 165 | 4.0 | 4.0 | 0.00 | 0.00 | 0.00 | 20 | 918.4 |
| 20260502070120 | 51 | 225 | 4.0 | 6.0 | 0.00 | 0.00 | 0.00 | 20 | 918.5 |
| 20260502064615 | 51 | 310 | 3.0 | 4.0 | 0.00 | 0.00 | 0.00 | 20 | 918.4 |
| 20260502063114 | 51 | 10 | 2.0 | 3.0 | 0.00 | 0.00 | 0.00 | 20 | 918.5 |
| 20260502061608 | 52 | 353 | 4.0 | 4.0 | 0.00 | 0.00 | 0.00 | 20 | 918.5 |
| 20260502060123 | 52 | 297 | 3.0 | 5.0 | 0.00 | 0.00 | 0.00 | 20 | 918.5 |
| 20260502054608 | 52 | 336 | 2.0 | 3.0 | 0.00 | 0.00 | 0.00 | 20 | 918.5 |
| 20260502053114 | 53 | 337 | 2.0 | 3.0 | 0.00 | 0.00 | 0.00 | 20 | 918.5 |
| 20260502051623 | 54 | 8 | 5.0 | 6.0 | 0.00 | 0.00 | 0.00 | 20 | 918.6 |
| 20260502050111 | 54 | 323 | 4.0 | 5.0 | 0.00 | 0.00 | 0.00 | 20 | 918.6 |
| 20260502044615 | 54 | 10 | 3.0 | 3.0 | 0.00 | 0.00 | 0.00 | 20 | 918.6 |
| 20260502043109 | 55 | 234 | 2.0 | 2.0 | 0.00 | 0.00 | 0.00 | 20 | 918.7 |
| 20260502041617 | 55 | 340 | 2.0 | 3.0 | 0.00 | 0.00 | 0.00 | 20 | 918.7 |
| 20260502040118 | 56 | 351 | 2.0 | 3.0 | 0.00 | 0.00 | 0.00 | 20 | 918.8 |
| 20260502034608 | 57 | 356 | 2.0 | 2.0 | 0.00 | 0.00 | 0.00 | 20 | 918.8 |
| 20260502033114 | 58 | 358 | 2.0 | 3.0 | 0.00 | 0.00 | 0.00 | 20 | 918.9 |
| 20260502031622 | 58 | 347 | 3.0 | 4.0 | 0.00 | 0.00 | 0.00 | 20 | 918.9 |
| 20260502030115 | 59 | 268 | 0.0 | 1.0 | 0.00 | 0.00 | 0.00 | 20 | 919.0 |
| 20260502024611 | 61 | 200 | 1.0 | 2.0 | 0.00 | 0.00 | 0.00 | 20 | 919.2 |
| 20260502023110 | 62 | 324 | 1.0 | 2.0 | 0.00 | 0.00 | 0.00 | 20 | 919.3 |
| 20260502014616 | 67 | 326 | 2.0 | 2.0 | 0.00 | 0.00 | 0.00 | 20 | 919.7 |
| 20260502013109 | 70 | 289 | 2.0 | 3.0 | 0.00 | 0.00 | 0.00 | 21 | 919.9 |
| 20260502010110 | 71 | 226 | 8.0 | 9.0 | 0.00 | 0.00 | 0.00 | 21 | 920.0 |
| 20260502004608 | 72 | 324 | 1.0 | 3.0 | 0.00 | 0.00 | 0.00 | 21 | 920.1 |
| 20260502000110 | 71 | 198 | 4.0 | 5.0 | 0.00 | 0.00 | 0.00 | 22 | 920.0 |